PDT,Max TemperatureF,Mean TemperatureF,Min TemperatureF,Max Dew PointF,MeanDew PointF,Min DewpointF,Max Humidity, Mean Humidity, Min Humidity, Max Sea Level PressureIn, Mean Sea Level PressureIn, Min Sea Level PressureIn, Max VisibilityMiles, Mean VisibilityMiles, Min VisibilityMiles, Max Wind SpeedMPH, Mean Wind SpeedMPH, Max Gust SpeedMPH,PrecipitationIn, CloudCover, Events, WindDirDegrees
2013-3-1,57,40,23,32,25,21,100,77,25,30.55,30.48,30.39,10,8,0,6,1,,0.00,1,Fog,130
2013-3-2,53,38,24,32,25,21,100,68,28,30.43,30.28,30.16,10,10,9,15,3,21,0.00,2,Rain,219
2013-3-3,39,36,32,36,33,32,100,93,75,30.16,30.09,30.05,10,7,0,7,1,,0.06,8,Fog-Rain,165
2013-3-4,50,39,28,36,29,27,100,84,43,30.15,30.10,30.06,10,6,0,10,2,,0.00,3,Fog,204
2013-3-5,46,37,28,28,26,18,93,62,42,30.07,29.91,29.75,10,10,2,29,14,41,0.00,3,Snow,200
2013-3-6,32,26,19,28,22,14,93,77,55,29.95,29.86,29.72,10,5,0,36,18,51,0.04,7,Snow,206
2013-3-7,32,26,19,28,23,16,100,91,69,29.93,29.88,29.84,10,5,0,7,1,,0.02,8,Fog-Snow,190
2013-3-8,37,30,23,28,24,19,100,84,48,29.99,29.87,29.81,10,7,0,7,1,,0.01,7,Fog-Snow,44
2013-3-9,41,30,19,27,18,9,100,71,26,30.42,30.24,30.00,10,8,0,14,3,17,0.00,2,Fog-Snow,71
2013-3-10,50,31,12,23,15,9,86,64,23,30.45,30.40,30.34,10,10,8,9,3,,0.00,0,,20
2013-3-11,57,37,17,28,21,16,93,65,23,30.39,30.32,30.23,10,10,5,8,1,,0.00,1,,40
2013-3-12,62,42,23,37,26,16,100,72,16,30.33,30.28,30.23,10,10,10,7,1,,0.00,1,,146
2013-3-13,66,45,24,32,28,19,100,71,18,30.37,30.32,30.28,10,10,10,15,2,18,0.00,1,Fog,199
2013-3-14,64,46,28,32,28,23,93,69,22,30.32,30.30,30.28,10,10,10,20,3,28,0.00,1,,198
2013-3-15,60,42,24,32,26,18,100,72,19,30.30,30.23,30.17,10,10,10,13,2,,0.00,1,,213
2013-3-16,57,40,23,27,22,14,93,63,18,30.20,30.14,30.08,10,10,10,17,5,26,0.00,0,,218
2013-3-17,55,39,23,28,22,-2,93,66,10,30.15,30.12,30.08,10,10,10,14,4,21,0.00,0,,211
2013-3-18,53,36,19,25,21,14,100,64,22,30.17,30.14,30.09,10,10,10,13,2,17,0.00,3,,254
2013-3-19,53,42,32,36,29,23,93,67,38,30.18,30.14,30.10,10,10,7,15,5,21,0.01,7,Rain,212
2013-3-20,44,38,32,36,32,28,100,79,66,30.10,30.06,30.04,10,9,2,24,13,31,0.07,6,Rain-Snow,202
2013-3-21,48,36,24,32,26,14,93,71,29,30.10,30.06,30.01,10,10,10,15,5,20,0.00,2,,268
2013-3-22,46,30,14,23,11,-4,93,60,12,30.14,30.08,30.03,10,10,10,12,2,18,0.00,0,,354
2013-3-23,53,34,15,23,15,9,80,60,18,30.18,30.13,30.06,10,10,7,16,2,22,0.00,0,,246
2013-3-24,57,38,19,32,23,18,93,66,27,30.16,30.11,30.05,10,10,10,14,3,21,0.00,1,,209
2013-3-25,57,40,23,27,20,7,93,58,13,30.09,30.04,29.98,10,10,10,18,3,24,0.00,1,,220
2013-3-26,48,40,32,34,29,21,100,65,46,30.03,29.99,29.94,10,10,9,17,7,24,0.00,5,,188
2013-3-27,53,38,24,36,30,25,100,82,38,30.07,30.02,29.99,10,9,0,18,4,25,0.00,4,Fog-Rain,224
2013-3-28,50,39,28,37,31,27,100,85,43,30.21,30.12,30.05,10,10,2,15,3,22,0.00,5,,172
2013-3-29,60,43,26,39,30,25,100,78,25,30.26,30.22,30.18,10,5,0,10,2,20,0.00,4,Fog,184
2013-3-30,64,45,26,37,32,25,100,78,24,30.25,30.17,30.08,10,8,0,15,2,24,0.00,4,Fog-Thunderstorm,203
2013-3-31,46,37,28,37,33,27,100,84,57,30.11,30.07,30.04,10,9,2,16,4,21,0.28,5,Rain-Thunderstorm,204